Tracking 28790 objects as of 19-Apr-2024
HD Live streaming from Space Station
objects crossing your sky now

COSMOS 1275 DEB

Track COSMOS 1275 DEB now!
10-day predictions


NORAD ID: 42145
Int'l Code: 1981-053RH
Perigee: 696.6 km
Apogee: 735.5 km
Inclination: 83.4 °
Period: 99.0 minutes
Semi major axis: 7087 km
RCS: Unknown
Launch date: June 4, 1981
Source: Commonwealth of Independent States (former USSR) (CIS)
Launch site: PLESETSK MISSILE AND SPACE COMPLEX (PKMTR)

Note: This is SATELLITE DEBRIS
Your satellite tracking list
Your tracking list is empty




NASA's NSSDC Master Catalog

Two Line Element Set (TLE):
1 42145U 81053RH  24100.59838530  .00012801  00000-0  29421-2 0  9993
2 42145  83.3711  53.0552 0027438 128.7412 231.6249 14.55139646545779
Source of the keplerian elements: AFSPC